TimeCDT,TemperatureF,Dew PointF,Humidity,Sea Level PressureIn,VisibilityMPH,Wind Direction,Wind SpeedMPH,Gust SpeedMPH,PrecipitationIn,Events,Conditions,WindDirDegrees,DateUTC
12:17 AM,66.9,66.9,100,29.81,1.8,North,5.8,-,N/A,Thunderstorm,Overcast,360,2014-04-15 05:17:00
12:25 AM,66.9,66.9,100,29.78,1.0,ENE,17.3,25.3,N/A,Thunderstorm,Overcast,60,2014-04-15 05:25:00
12:33 AM,66.0,66.0,100,29.80,0.8,North,11.5,25.3,N/A,Thunderstorm,Overcast,10,2014-04-15 05:33:00
12:48 AM,64.4,64.4,100,29.79,0.5,Variable,5.8,25.3,N/A,Fog-Thunderstorm,Unknown,0,2014-04-15 05:48:00
12:53 AM,64.9,64.9,100,29.81,0.5,North,15.0,20.7,N/A,Fog-Thunderstorm,Unknown,10,2014-04-15 05:53:00
12:55 AM,64.9,64.9,100,29.80,1.0,North,17.3,20.7,N/A,Thunderstorm,Overcast,10,2014-04-15 05:55:00
1:02 AM,64.9,64.9,100,29.80,2.5,North,11.5,-,N/A,Thunderstorm,Overcast,10,2014-04-15 06:02:00
1:05 AM,64.9,64.9,100,29.80,3.0,North,10.4,-,N/A,Thunderstorm,Overcast,360,2014-04-15 06:05:00
1:17 AM,64.9,64.9,100,29.78,2.5,NNE,9.2,-,N/A,Thunderstorm,Overcast,30,2014-04-15 06:17:00
1:28 AM,64.9,64.9,100,29.78,4.0,North,5.8,-,N/A,Thunderstorm,Overcast,10,2014-04-15 06:28:00
1:42 AM,64.9,64.9,100,29.78,2.5,East,4.6,-,N/A,Thunderstorm,Overcast,100,2014-04-15 06:42:00
1:53 AM,64.9,64.9,100,29.78,2.5,ENE,5.8,-,N/A,Thunderstorm,Overcast,70,2014-04-15 06:53:00
2:08 AM,64.9,64.9,100,29.77,1.8,East,4.6,-,N/A,Thunderstorm,Overcast,100,2014-04-15 07:08:00
2:15 AM,64.9,64.9,100,29.76,2.0,East,9.2,-,N/A,Thunderstorm,Overcast,100,2014-04-15 07:15:00
2:23 AM,64.9,64.9,100,29.76,1.8,SE,4.6,-,N/A,Thunderstorm,Overcast,130,2014-04-15 07:23:00
2:30 AM,64.9,64.9,100,29.74,2.5,East,8.1,-,N/A,Thunderstorm,Overcast,80,2014-04-15 07:30:00
2:37 AM,64.9,64.9,100,29.75,3.0,East,9.2,-,N/A,Thunderstorm,Overcast,100,2014-04-15 07:37:00
2:47 AM,64.4,64.4,100,29.75,2.5,East,5.8,-,N/A,Thunderstorm,Overcast,100,2014-04-15 07:47:00
2:53 AM,64.9,64.9,100,29.75,2.5,Variable,4.6,-,N/A,Thunderstorm,Overcast,0,2014-04-15 07:53:00
3:02 AM,64.9,64.9,100,29.74,2.0,ESE,6.9,-,N/A,Thunderstorm,Overcast,110,2014-04-15 08:02:00
3:06 AM,64.9,64.9,100,29.75,2.0,SE,6.9,-,N/A,Thunderstorm,Overcast,140,2014-04-15 08:06:00
3:12 AM,64.9,64.9,100,29.74,2.5,SSE,9.2,-,N/A,Thunderstorm,Overcast,150,2014-04-15 08:12:00
3:18 AM,64.9,64.9,100,29.74,3.0,SE,8.1,-,N/A,Thunderstorm,Overcast,130,2014-04-15 08:18:00
3:37 AM,64.9,64.9,100,29.74,4.0,SE,6.9,-,N/A,Thunderstorm,Overcast,140,2014-04-15 08:37:00
3:45 AM,64.9,64.9,100,29.74,4.0,SE,8.1,-,N/A,,Overcast,130,2014-04-15 08:45:00
3:53 AM,64.9,64.9,100,29.75,5.0,SSE,6.9,-,N/A,,Overcast,160,2014-04-15 08:53:00
4:01 AM,64.9,64.9,100,29.74,8.0,SSE,5.8,-,N/A,,Overcast,160,2014-04-15 09:01:00
4:30 AM,66.0,66.0,100,29.75,10.0,SW,4.6,-,N/A,,Overcast,220,2014-04-15 09:30:00
4:38 AM,66.0,66.0,100,29.74,10.0,SSE,3.5,-,N/A,,Overcast,160,2014-04-15 09:38:00
4:53 AM,66.0,66.0,100,29.73,10.0,Calm,Calm,-,N/A,,Overcast,0,2014-04-15 09:53:00
5:53 AM,66.0,66.0,100,29.73,10.0,SSW,3.5,-,N/A,,Overcast,210,2014-04-15 10:53:00
6:23 AM,66.0,66.0,100,29.73,10.0,South,4.6,-,N/A,,Mostly Cloudy,180,2014-04-15 11:23:00
6:42 AM,66.0,66.0,100,29.74,10.0,SSW,4.6,-,N/A,,Mostly Cloudy,210,2014-04-15 11:42:00
6:53 AM,66.0,66.0,100,29.75,10.0,SW,4.6,-,N/A,,Overcast,230,2014-04-15 11:53:00
7:53 AM,66.0,66.0,100,29.78,1.5,West,11.5,20.7,N/A,,Overcast,280,2014-04-15 12:53:00
8:03 AM,66.0,64.9,96,29.80,3.0,WNW,11.5,-,N/A,,Overcast,290,2014-04-15 13:03:00
8:11 AM,66.0,66.0,100,29.79,8.0,West,8.1,-,N/A,,Overcast,280,2014-04-15 13:11:00
8:53 AM,66.0,66.0,100,29.80,10.0,West,13.8,19.6,N/A,,Overcast,280,2014-04-15 13:53:00
9:53 AM,55.9,55.9,100,29.86,6.0,NW,17.3,27.6,N/A,,Overcast,310,2014-04-15 14:53:00
10:12 AM,55.0,54.0,96,29.88,10.0,NW,21.9,33.4,N/A,,Overcast,320,2014-04-15 15:12:00
10:21 AM,55.0,53.1,93,29.89,7.0,NW,18.4,-,N/A,,Overcast,310,2014-04-15 15:21:00
10:34 AM,54.0,53.1,97,29.89,3.0,NW,17.3,25.3,N/A,,Overcast,310,2014-04-15 15:34:00
10:44 AM,53.1,53.1,100,29.90,2.5,WNW,12.7,25.3,N/A,,Overcast,300,2014-04-15 15:44:00
10:53 AM,53.1,53.1,100,29.90,3.0,NW,15.0,24.2,N/A,,Overcast,320,2014-04-15 15:53:00
11:23 AM,54.0,53.1,97,29.91,10.0,NW,13.8,-,N/A,,Overcast,320,2014-04-15 16:23:00
11:53 AM,53.1,52.0,96,29.92,9.0,NW,16.1,28.8,N/A,,Overcast,310,2014-04-15 16:53:00
12:53 PM,55.9,50.0,80,29.91,10.0,NW,18.4,29.9,N/A,,Overcast,320,2014-04-15 17:53:00
1:53 PM,54.0,48.0,80,29.93,10.0,WNW,19.6,26.5,N/A,,Overcast,300,2014-04-15 18:53:00
2:53 PM,53.1,46.0,77,29.95,10.0,NW,20.7,28.8,N/A,,Overcast,320,2014-04-15 19:53:00
3:53 PM,52.0,45.0,77,29.97,10.0,NW,15.0,-,N/A,,Overcast,320,2014-04-15 20:53:00
4:53 PM,52.0,42.1,69,29.99,10.0,NNW,16.1,-,N/A,,Overcast,330,2014-04-15 21:53:00
5:53 PM,53.1,41.0,64,29.98,10.0,North,13.8,-,N/A,,Mostly Cloudy,360,2014-04-15 22:53:00
6:03 PM,52.0,39.0,61,29.98,10.0,North,15.0,23.0,N/A,,Partly Cloudy,360,2014-04-15 23:03:00
6:53 PM,51.1,39.9,66,30.01,10.0,North,10.4,-,N/A,,Clear,350,2014-04-15 23:53:00
7:53 PM,48.9,41.0,74,30.04,10.0,NNW,9.2,-,N/A,,Clear,330,2014-04-16 00:53:00
8:53 PM,48.0,41.0,77,30.08,10.0,NW,5.8,-,N/A,,Clear,320,2014-04-16 01:53:00
9:53 PM,46.9,39.9,77,30.11,10.0,NNW,8.1,-,N/A,,Clear,330,2014-04-16 02:53:00
10:53 PM,46.0,39.0,76,30.12,10.0,NNW,3.5,-,N/A,,Clear,330,2014-04-16 03:53:00
11:53 PM,44.1,39.9,85,30.13,10.0,NNW,5.8,-,N/A,,Clear,340,2014-04-16 04:53:00